TimeEST,TemperatureF,Dew PointF,Humidity,Sea Level PressureIn,VisibilityMPH,Wind Direction,Wind SpeedMPH,Gust SpeedMPH,PrecipitationIn,Events,Conditions,WindDirDegrees,DateUTC
12:16 AM,30.7,26.2,83,29.82,10.0,West,6.9,-,N/A,Snow,Light Snow,260,2013-02-24 05:16:00
12:31 AM,30.7,26.6,85,29.82,10.0,West,8.1,-,N/A,Snow,Light Snow,280,2013-02-24 05:31:00
12:51 AM,30.6,27.1,87,29.82,7.0,WNW,10.4,-,N/A,Snow,Light Snow,290,2013-02-24 05:51:00
1:52 AM,30.9,27.0,85,29.83,10.0,WNW,5.8,-,N/A,,Overcast,290,2013-02-24 06:52:00
2:12 AM,30.7,27.0,86,29.83,10.0,WNW,5.8,-,N/A,Snow,Light Snow,290,2013-02-24 07:12:00
2:32 AM,30.7,27.1,86,29.84,10.0,NW,4.6,-,N/A,Snow,Light Snow,310,2013-02-24 07:32:00
2:52 AM,31.1,27.5,87,29.84,10.0,NW,5.8,-,N/A,,Overcast,320,2013-02-24 07:52:00
3:12 AM,31.1,27.1,85,29.84,10.0,NW,5.8,-,N/A,,Overcast,320,2013-02-24 08:12:00
3:32 AM,31.1,27.1,85,29.84,7.0,NW,9.2,-,N/A,Snow,Light Snow,310,2013-02-24 08:32:00
3:52 AM,31.3,27.3,85,29.85,7.0,NW,11.5,-,N/A,Snow,Light Snow,320,2013-02-24 08:52:00
4:12 AM,31.1,26.8,84,29.85,10.0,NW,9.2,-,N/A,,Overcast,320,2013-02-24 09:12:00
4:33 AM,31.1,27.3,86,29.85,10.0,NW,8.1,-,N/A,Snow,Light Snow,320,2013-02-24 09:33:00
5:13 AM,30.9,27.1,86,29.87,10.0,NNW,9.2,-,N/A,,Overcast,330,2013-02-24 10:13:00
5:33 AM,30.9,26.4,83,29.88,10.0,NW,10.4,-,N/A,,Overcast,320,2013-02-24 10:33:00
5:53 AM,30.6,25.5,82,29.89,10.0,NNW,9.2,-,N/A,,Overcast,330,2013-02-24 10:53:00
6:13 AM,30.2,24.8,80,29.90,10.0,NW,9.2,-,N/A,,Overcast,320,2013-02-24 11:13:00
6:33 AM,30.2,24.6,80,29.90,10.0,NW,10.4,-,N/A,,Overcast,320,2013-02-24 11:33:00
6:53 AM,29.5,23.9,80,29.91,10.0,NNW,4.6,-,N/A,,Mostly Cloudy,330,2013-02-24 11:53:00
7:13 AM,29.7,23.9,79,29.92,10.0,NNW,8.1,-,N/A,,Mostly Cloudy,330,2013-02-24 12:13:00
7:34 AM,29.5,22.8,76,29.93,10.0,NW,6.9,-,N/A,,Mostly Cloudy,320,2013-02-24 12:34:00
7:54 AM,28.4,22.5,78,29.94,10.0,NNW,5.8,-,N/A,,Scattered Clouds,330,2013-02-24 12:54:00
8:14 AM,28.9,23.5,80,29.95,10.0,NNW,6.9,-,N/A,,Mostly Cloudy,330,2013-02-24 13:14:00
8:34 AM,29.5,24.1,80,29.96,10.0,NW,5.8,-,N/A,,Mostly Cloudy,320,2013-02-24 13:34:00
8:54 AM,30.6,25.2,80,29.96,10.0,NW,5.8,-,N/A,,Overcast,320,2013-02-24 13:54:00
9:14 AM,30.7,25.2,80,29.97,10.0,NW,8.1,-,N/A,,Overcast,320,2013-02-24 14:14:00
9:34 AM,30.9,25.5,80,29.98,10.0,NW,8.1,-,N/A,,Overcast,320,2013-02-24 14:34:00
9:54 AM,31.5,25.7,79,29.98,10.0,NW,8.1,-,N/A,,Overcast,320,2013-02-24 14:54:00
10:15 AM,31.6,25.7,79,29.99,10.0,NNW,5.8,-,N/A,,Overcast,330,2013-02-24 15:15:00
10:35 AM,32.4,26.6,79,30.00,10.0,NW,6.9,-,N/A,,Scattered Clouds,320,2013-02-24 15:35:00
10:55 AM,33.4,27.1,78,30.01,10.0,NNW,4.6,-,N/A,,Scattered Clouds,330,2013-02-24 15:55:00
11:15 AM,33.3,27.3,79,30.01,10.0,NW,8.1,-,N/A,,Mostly Cloudy,310,2013-02-24 16:15:00
11:35 AM,32.7,26.1,76,30.02,10.0,NNW,9.2,-,N/A,,Overcast,330,2013-02-24 16:35:00
11:55 AM,33.4,25.9,74,30.02,10.0,NNW,6.9,-,N/A,,Mostly Cloudy,330,2013-02-24 16:55:00
12:15 PM,33.3,25.5,73,30.02,10.0,North,4.6,-,N/A,,Mostly Cloudy,350,2013-02-24 17:15:00
12:35 PM,33.8,25.9,73,30.03,10.0,North,5.8,-,N/A,,Mostly Cloudy,350,2013-02-24 17:35:00
12:56 PM,33.8,25.9,73,30.04,10.0,NW,8.1,-,N/A,,Mostly Cloudy,310,2013-02-24 17:56:00
1:16 PM,33.4,25.5,73,30.03,10.0,NW,6.9,-,N/A,,Mostly Cloudy,310,2013-02-24 18:16:00
1:36 PM,33.3,25.5,73,30.04,10.0,NW,6.9,-,N/A,,Mostly Cloudy,320,2013-02-24 18:36:00
1:56 PM,32.4,26.1,78,30.03,10.0,WNW,9.2,-,N/A,,Mostly Cloudy,290,2013-02-24 18:56:00
2:16 PM,33.3,25.7,74,30.03,10.0,NNW,4.6,-,N/A,,Mostly Cloudy,330,2013-02-24 19:16:00
2:31 PM,33.1,25.3,73,30.04,10.0,NW,3.5,-,N/A,,Mostly Cloudy,310,2013-02-24 19:31:00
2:51 PM,33.6,26.6,75,30.04,10.0,West,6.9,-,N/A,,Mostly Cloudy,280,2013-02-24 19:51:00
3:11 PM,33.4,27.0,77,30.04,10.0,West,8.1,-,N/A,,Overcast,260,2013-02-24 20:11:00
3:31 PM,34.0,26.6,74,30.05,10.0,West,9.2,-,N/A,,Overcast,270,2013-02-24 20:31:00
3:52 PM,33.6,26.8,76,30.06,10.0,West,8.1,-,N/A,,Mostly Cloudy,280,2013-02-24 20:52:00
4:12 PM,32.5,26.1,77,30.07,10.0,West,8.1,-,N/A,,Mostly Cloudy,280,2013-02-24 21:12:00
4:32 PM,32.9,25.5,74,30.08,10.0,West,6.9,-,N/A,,Overcast,270,2013-02-24 21:32:00
4:52 PM,32.4,26.2,78,30.08,10.0,WNW,8.1,-,N/A,,Overcast,290,2013-02-24 21:52:00
5:12 PM,32.2,26.6,80,30.08,10.0,WNW,5.8,-,N/A,,Overcast,290,2013-02-24 22:12:00
5:32 PM,32.0,26.2,79,30.08,10.0,West,4.6,-,N/A,,Overcast,280,2013-02-24 22:32:00
5:52 PM,32.0,26.2,79,30.09,10.0,West,3.5,-,N/A,,Overcast,270,2013-02-24 22:52:00
6:13 PM,31.1,25.9,81,30.09,10.0,West,3.5,-,N/A,,Overcast,280,2013-02-24 23:13:00
6:53 PM,29.8,25.9,85,30.10,10.0,Calm,Calm,-,N/A,,Overcast,0,2013-02-24 23:53:00
7:13 PM,29.3,26.1,88,30.10,10.0,Calm,Calm,-,N/A,,Overcast,0,2013-02-25 00:13:00
7:33 PM,29.7,26.4,88,30.10,10.0,Calm,Calm,-,N/A,,Overcast,0,2013-02-25 00:33:00
7:53 PM,28.9,25.9,88,30.11,10.0,Calm,Calm,-,N/A,,Mostly Cloudy,0,2013-02-25 00:53:00
8:13 PM,28.2,25.2,88,30.11,10.0,Calm,Calm,-,N/A,,Mostly Cloudy,0,2013-02-25 01:13:00
8:33 PM,27.7,25.2,90,30.11,10.0,Calm,Calm,-,N/A,,Mostly Cloudy,0,2013-02-25 01:33:00
8:54 PM,28.0,25.5,90,30.12,10.0,Calm,Calm,-,N/A,,Scattered Clouds,0,2013-02-25 01:54:00
9:14 PM,26.4,24.3,92,30.12,10.0,Calm,Calm,-,N/A,,Clear,0,2013-02-25 02:14:00
9:34 PM,24.6,22.5,91,30.13,10.0,Calm,Calm,-,N/A,,Clear,0,2013-02-25 02:34:00
9:54 PM,23.0,21.2,93,30.12,7.0,Calm,Calm,-,N/A,,Clear,0,2013-02-25 02:54:00
10:14 PM,22.6,21.0,93,30.13,5.0,Calm,Calm,-,N/A,,Clear,0,2013-02-25 03:14:00
10:34 PM,19.9,18.3,93,30.13,1.2,Calm,Calm,-,N/A,,Mist,0,2013-02-25 03:34:00
10:54 PM,20.8,19.2,93,30.13,1.5,Calm,Calm,-,N/A,,Mist,0,2013-02-25 03:54:00
11:15 PM,20.1,18.7,94,30.12,3.0,Calm,Calm,-,N/A,,Clear,0,2013-02-25 04:15:00
11:35 PM,19.6,18.0,93,30.12,1.0,Calm,Calm,-,N/A,,Mist,0,2013-02-25 04:35:00
11:55 PM,19.4,17.8,93,30.12,3.0,Calm,Calm,-,N/A,,Clear,0,2013-02-25 04:55:00